Willimantic, CT

10:23 AM EDT on October 22, 2017 (GMT -0400)
Windham

Weather History for KIJD - June, 2013

Change the Weather History Date:

Sunday, June 2, 2013

  Actual Average Record
Temperature  
Mean Temperature 75 °F -  
Max Temperature 86 °F 75 °F 88 °F (1962)
Min Temperature 66 °F 50 °F 36 °F (1993)
Cooling Degree Days 10    
Growing Degree Days 25 (Base 50)    
Moisture  
Dew Point 65 °F    
Average Humidity 74    
Maximum Humidity 90    
Minimum Humidity 51    
Precipitation  
Precipitation 0.00 in - - ()
Sea Level Pressure  
Sea Level Pressure 29.85 in    
Wind  
Wind Speed 7 mph (South)    
Max Wind Speed 17 mph    
Max Gust Speed 26 mph    
Visibility 10 miles    
Events      
Averages and records for this station are not official NWS values.
T = Trace of Precipitation, MM = Missing Value Source: NWS Daily Summary

Daily Weather History Graph

Daily Weather History Graph

Search for Another Location

Airport or City:

Trip Planner

Search our weather history database for the weather conditions in past years. The results will help you decide how hot, cold, wet, or windy it might be!

Date:

Astronomy

Jun. 02, 2013 Rise Set
Actual Time 5:15 AM EDT 8:17 PM EDT
Civil Twilight 4:42 AM EDT 8:51 PM EDT
Nautical Twilight 3:59 AM EDT 9:34 PM EDT
Astronomical Twilight 3:09 AM EDT 10:24 PM EDT
Moon 1:46 AM EDT (6/2) 2:41 PM EDT (6/2)
Length of Visible Light 16h 09m
Length of Day
15h 01m
Waning Crescent, 31% of the Moon is Illuminated
Jun 2
Waning Crescent
Jun 8
New
Jun 16
First Quarter
Jun 23
Full
Jun 30
Last Quarter

Hourly Weather History & Observations

Time (EDT) Temp. Heat Index Dew Point Humidity Pressure Visibility Wind Dir Wind Speed Gust Speed Precip Events Conditions
12:52 AM 70.0 °F - 64.0 °F 81% 29.92 in 10.0 mi SSE 5.8 mph - N/A   Clear
1:52 AM 68.0 °F - 64.0 °F 87% 29.91 in 10.0 mi SE 3.5 mph - N/A   Clear
2:52 AM 66.9 °F - 64.0 °F 90% 29.89 in 10.0 mi Calm Calm - N/A   Clear
3:52 AM 66.9 °F - 64.0 °F 90% 29.89 in 10.0 mi South 4.6 mph - N/A   Clear
4:52 AM 66.9 °F - 64.0 °F 90% 29.89 in 10.0 mi South 3.5 mph - N/A   Clear
5:52 AM 66.9 °F - 63.0 °F 87% 29.89 in 9.0 mi South 4.6 mph - N/A   Clear
6:52 AM 68.0 °F - 64.0 °F 87% 29.89 in 10.0 mi South 6.9 mph - N/A   Clear
7:52 AM 71.1 °F - 64.9 °F 81% 29.88 in 10.0 mi South 8.1 mph - N/A   Clear
8:52 AM 75.9 °F - 66.0 °F 71% 29.87 in 10.0 mi South 8.1 mph - N/A   Clear
9:52 AM 79.0 °F - 66.0 °F 64% 29.86 in 10.0 mi WSW 9.2 mph - N/A   Clear
10:52 AM 81.0 °F 83.0 °F 66.0 °F 60% 29.85 in 10.0 mi South 10.4 mph - N/A   Clear
11:52 AM 82.0 °F 84.1 °F 66.0 °F 58% 29.83 in 10.0 mi South 12.7 mph - N/A   Clear
12:52 PM 84.0 °F 85.8 °F 64.9 °F 53% 29.83 in 10.0 mi SSW 11.5 mph - N/A   Clear
1:52 PM 84.9 °F 86.6 °F 64.9 °F 51% 29.81 in 10.0 mi SSW 17.3 mph 26.5 mph N/A   Clear
2:52 PM 84.0 °F 86.5 °F 66.9 °F 56% 29.80 in 10.0 mi SSW 17.3 mph 26.5 mph N/A   Clear
3:52 PM 82.9 °F 85.4 °F 66.9 °F 58% 29.80 in 10.0 mi South 15.0 mph 23.0 mph N/A   Partly Cloudy
4:52 PM 80.1 °F 82.1 °F 66.0 °F 62% 29.79 in 10.0 mi South 13.8 mph 25.3 mph N/A   Clear
5:52 PM 77.0 °F - 64.9 °F 66% 29.79 in 10.0 mi SSW 16.1 mph 24.2 mph N/A   Clear
6:52 PM 73.9 °F - 64.0 °F 71% 29.81 in 10.0 mi South 12.7 mph 20.7 mph N/A   Partly Cloudy
7:52 PM 72.0 °F - 63.0 °F 73% 29.81 in 10.0 mi South 6.9 mph - N/A   Clear
8:52 PM 70.0 °F - 63.0 °F 78% 29.83 in 10.0 mi South 5.8 mph - N/A   Clear
9:52 PM 69.1 °F - 63.0 °F 81% 29.83 in 10.0 mi SSE 4.6 mph - N/A   Clear
10:52 PM 68.0 °F - 63.0 °F 84% 29.83 in 10.0 mi SE 3.5 mph - N/A   Clear
11:52 PM 66.9 °F - 63.0 °F 87% 29.83 in 10.0 mi SSE 4.6 mph - N/A   Mostly Cloudy